Preview of NWS' New Version of Forecast
This preview is not operational and should not be used for support decisions.

Regional Weather Roundup (RWR)

Issued by National Weather Service (NWS)

                            
000
ASUS44 KMEG 202310
RWRTN 
TENNESSEE HOURLY STATE WEATHER ROUNDUP
NATIONAL WEATHER SERVICE MEMPHIS TN
600 PM CDT WED MAR 20 2019

TNZ002-004-019-021-049-052-054-088>092-210000-
WEST TENNESSEE
  
CITY           SKY/WX    TMP DP  RH WIND       PRES   REMARKS
MEMPHIS INTL   LGT RAIN  51  45  79 NW12      30.11R                  
NWS MEMPHIS      N/A     52 N/A N/A MISG        N/A                   
JACKSON        LGT RAIN  52  42  69 W9        30.10S                  
DYERSBURG      LGT RAIN  49  46  90 W8        30.11F                  
SOMERVILLE     PTSUNNY   50  45  81 NW6       30.09S HAZE             
COVINGTON      PTSUNNY   50  46  87 NW7       30.11S FOG              
UNION CITY     CLOUDY    48  45  87 W7        30.09S                  
BOLIVAR        MOSUNNY   57  36  44 NW8G16    30.08S                  
PARIS          MOSUNNY   54  37  54 W10G18    30.08R                  
HUNTINGDON     CLOUDY    55  37  50 W15       30.07S                  
LEXINGTON      MOSUNNY   63  30  29 W7        30.04S                  
SAVANNAH       SUNNY     64  34  32 S5        30.03F                  
$$

TNZ008-025-027-028-033-062-065-066-210000-
NORTH MIDDLE TENNESSEE
  
CITY           SKY/WX    TMP DP  RH WIND       PRES   REMARKS
NASHVILLE      PTSUNNY   63  25  23 S9        30.04F                  
DICKSON        CLEAR     61  28  29 NW7       30.02F                  
CLARKSVILLE    FAIR      58  27  30 W13       30.04F                  
SMYRNA         FAIR      63  28  26 SW7       30.05F                  
MURFREESBORO   CLEAR     63  25  23 SW6       30.03F                  
COOKEVILLE     CLEAR     61  23  23 SW8       30.04F                  
LIVINGSTON     CLEAR     59  23  25 SW7G14    30.03F                  
GALLATIN       CLEAR     64  25  22 S6        30.06F                  
CROSSVILLE     FAIR      58  25  28 W7        30.05S                  
ROCKWOOD       CLEAR     57  21  24 S9        30.05S                  
$$

TNZ061-075-076-078-094-096-097-210000-
SOUTH MIDDLE TENNESSEE
  
CITY           SKY/WX    TMP DP  RH WIND       PRES   REMARKS
LAWRENCEBURG   CLEAR     61  28  29 S7        30.04F                  
LEWISBURG      CLEAR     61  27  27 VRB7      30.05S                  
FAYETTEVILLE   SUNNY     61  28  29 VRB7      30.06F                  
TULLAHOMA      SUNNY     59  27  29 SW7       30.05F                  
WINCHESTER     SUNNY     61  25  25 W8        30.05F                  
MCMINNVILLE    SUNNY     59  27  29 SW6G13    30.05F                  
COLUMBIA       SUNNY     63  27  25 S9        30.02F                  
SHELBYVILLE    SUNNY     61  28  29 SW8       30.05F                  
$$

TNZ017-018-042-046-047-210000-
NORTHEAST TENNESSEE
  
CITY           SKY/WX    TMP DP  RH WIND       PRES   REMARKS
TRI CITIES     FAIR      58  25  28 W6        30.06F                  
ELIZABETHTON   FAIR      57  27  30 W8        30.05S                  
GREENEVILLE    CLEAR     57  23  26 NW3       30.05F                  
$$

TNZ012-013-036-069-073-074-210000-
CENTRAL EAST TENNESSEE
  
CITY           SKY/WX    TMP DP  RH WIND       PRES   REMARKS
KNOXVILLE      CLOUDY    59  23  25 W8        30.05F                  
OAK RIDGE      FAIR      63  20  19 VRB3      30.06F                  
DOWNTOWN KNOXV CLEAR     61  27  27 SW9       30.05F                  
GATLINBURG     CLEAR     61  25  25 NW3       30.04F                  
MORRISTOWN     CLEAR     57  21  24 CALM      30.04F                  
JACKSBORO      CLEAR     59  21  23 VRB6      30.07F                  
$$

TNZ083-085-099-210000-
SOUTHEAST TENNESSEE
  
CITY           SKY/WX    TMP DP  RH WIND       PRES   REMARKS
CHATTANOOGA    FAIR      63  24  22 E5        30.06F                  
DAYTON         CLEAR     61  25  25 S7        30.05F                  
$$

SKY/WX REPORTED AS FAIR MEANS FEW OR NO CLOUDS BELOW
12 THOUSAND FEET.